Wind_Speed
11 10 8 8 10 11 11 11 8 14 21 22 22 21 20 25 27 20 16 14 18 23 27 32 37 36 33 36 36 39 40 40 39 39 40 38 38 40 40 40 41 38 37 37 39 37 36 34 37
13 11 11 12 11 12 13 10 11 15 26 26 27 21 18 25 21 17 14 18 17 24 30 39 41 40 36 35 38 40 41 36 38 39 40 43 45 47 45 41 39 45 46 42 41 39 37 32 34
15 14 15 15 15 15 14 16 20 19 16 25 28 22 17 18 8 10 14 19 20 27 34 41 42 40 39 41 41 46 42 33 37 39 40 47 46 40 46 42 43 44 42 38 40 39 34 29 30
17 18 18 17 15 19 19 21 15 11 19 21 24 20 19 17 8 19 15 20 27 29 36 41 43 43 43 44 44 44 36 33 37 43 48 43 46 44 45 44 40 37 33 37 36 35 30 26 28
20 21 23 21 17 23 25 25 19 15 17 21 25 24 24 20 15 26 29 31 33 30 38 43 47 53 49 45 48 41 35 35 40 44 38 46 48 48 45 44 41 36 35 38 36 32 23 21 23
23 25 26 25 20 24 29 25 27 25 25 25 26 24 26 18 20 30 33 34 28 35 41 48 52 57 50 50 46 42 35 34 40 40 42 51 52 47 47 41 37 37 40 36 33 29 20 18 24
27 29 28 23 23 25 31 30 26 24 24 25 24 22 22 24 27 31 30 28 35 41 44 48 54 55 50 50 47 42 37 37 44 47 54 55 55 49 45 39 39 40 36 34 30 29 27 16 21
32 33 32 21 29 28 30 36 36 34 26 21 25 30 29 22 28 27 34 38 39 46 45 50 58 51 50 48 46 39 36 45 49 54 55 58 56 47 43 37 37 42 39 37 28 30 33 21 21
35 36 34 31 32 35 35 37 42 41 39 36 35 33 29 25 29 39 38 40 43 46 46 53 56 47 55 45 44 35 42 52 51 52 55 59 57 50 46 45 44 40 42 36 35 27 31 25 28
39 40 38 36 36 37 39 40 42 41 41 44 34 35 29 30 38 40 36 40 45 43 47 54 57 49 54 46 40 34 55 47 52 50 56 59 54 54 52 48 47 47 46 37 35 31 35 21 18
41 43 44 42 42 43 43 43 45 47 45 47 45 37 35 35 39 37 35 42 45 47 52 54 56 54 51 52 41 51 46 48 46 52 58 58 56 57 56 50 50 56 45 48 39 31 31 33 29
47 46 47 47 46 48 48 45 47 51 47 51 50 44 38 37 40 39 37 43 42 48 51 56 58 50 55 57 58 46 48 45 45 54 58 57 56 59 59 52 52 59 61 50 40 34 31 30 15
51 51 49 52 50 48 50 50 46 49 46 55 52 41 39 40 41 44 40 41 38 45 49 56 57 54 58 61 59 41 48 43 48 55 58 57 58 60 63 61 60 63 61 51 44 32 32 34 18
55 56 56 57 55 57 51 47 49 50 53 54 48 43 42 42 45 50 46 46 43 45 51 56 49 55 61 58 48 45 47 44 51 56 57 57 59 61 62 66 64 60 56 52 43 37 40 41 43
59 60 56 59 61 57 49 53 49 53 55 53 46 45 46 43 48 52 53 45 42 46 52 52 46 54 56 52 45 50 47 45 53 57 58 58 59 62 63 67 68 61 52 46 41 44 44 43 52
62 62 61 67 63 57 46 59 49 58 56 53 48 46 45 45 48 54 52 43 47 47 53 54 50 55 59 52 49 49 48 46 54 58 58 60 59 59 64 65 70 66 54 46 46 41 49 49 49
63 62 67 72 58 48 47 57 57 58 55 53 50 47 49 48 47 49 49 50 43 49 56 54 53 56 59 51 48 48 46 49 54 58 60 60 60 61 64 65 70 69 58 46 45 49 42 51 58
56 53 55 55 51 40 41 46 52 56 50 49 50 47 39 44 49 51 54 49 48 51 56 55 57 57 56 53 49 50 49 52 56 60 61 60 59 64 63 64 66 66 64 57 47 44 41 43 57
55 53 53 54 55 52 50 50 52 47 48 51 49 48 48 47 50 53 51 50 57 58 52 54 57 56 60 56 54 52 53 57 59 63 60 61 63 63 63 63 64 67 71 67 56 48 43 45 49
61 57 59 64 62 58 53 54 57 62 54 54 60 60 53 52 56 55 54 55 60 56 51 54 56 57 61 57 54 59 60 60 62 61 61 61 62 63 66 66 67 68 74 70 71 45 45 46 51
64 65 64 62 63 60 54 44 44 52 55 60 59 58 56 57 57 56 60 57 57 55 53 54 56 58 58 56 61 60 62 62 63 60 62 62 64 66 69 69 71 74 73 79 77 68 41 42 46
62 61 64 68 73 65 62 54 53 54 56 59 61 57 51 56 60 62 62 59 57 53 52 55 55 58 60 64 65 63 62 63 62 63 64 66 67 70 71 72 74 77 76 82 82 81 69 62 58
56 69 70 72 71 61 61 60 48 63 64 65 64 62 56 59 62 61 58 58 55 52 53 56 62 63 63 65 64 62 64 63 64 65 68 69 69 72 73 75 76 80 81 85 88 86 86 76 71
69 67 70 71 73 69 65 70 51 61 68 65 63 59 61 64 66 60 55 57 56 55 58 64 63 65 66 63 64 64 64 63 66 66 68 69 73 74 75 78 79 85 88 91 93 94 89 85 78
74 72 73 74 77 68 72 73 55 62 63 66 66 63 63 61 64 62 60 60 59 63 65 63 65 64 62 64 64 66 63 65 65 67 72 75 77 78 79 82 89 91 94 96 97 100 97 94 89
77 77 75 79 77 72 74 68 65 68 69 72 69 67 64 61 66 66 61 61 64 64 63 66 62 61 64 66 67 67 66 67 68 71 76 78 79 81 86 87 97 100 101 102 103 107 103 101 91
83 84 80 83 80 77 76 74 69 70 73 74 67 61 63 66 66 62 61 65 65 64 66 63 60 65 67 68 71 70 68 70 72 75 77 79 80 86 90 97 102 104 106 108 110 111 111 106 93
84 82 86 88 87 86 76 74 68 70 72 71 67 65 70 72 71 70 70 65 61 63 60 61 65 66 68 72 72 70 70 72 77 80 84 85 84 90 96 103 106 107 109 110 112 115 115 105 93
98 93 89 88 92 89 83 70 67 69 69 69 69 72 72 67 72 67 59 61 61 58 62 65 66 68 71 75 73 75 74 75 80 84 89 87 86 93 101 105 106 110 111 112 115 120 115 102 91
96 94 92 95 91 83 80 61 66 70 66 69 71 74 75 70 63 63 64 61 60 64 68 68 68 71 76 76 78 80 80 82 87 92 95 90 93 98 103 108 112 116 116 117 121 122 118 101 91
Wind_Direction
227 239 263 282 296 321 311 318 293 317 323 329 329 328 325 327 330 335 337 348 1 1 352 358 353 347 341 343 341 342 343 345 338 338 340 341 339 333 329 325 326 328 324 319 316 315 314 317 312
239 253 272 283 291 308 313 313 293 325 323 322 325 333 324 327 333 344 354 359 358 357 352 359 355 349 349 345 343 341 339 340 343 336 333 337 334 330 329 325 318 325 321 315 310 308 306 309 306
248 266 278 280 292 304 303 305 312 320 323 319 334 337 337 332 340 356 353 351 354 348 350 354 352 349 346 341 342 340 336 335 339 337 332 332 332 333 332 322 315 317 315 315 313 312 305 305 303
256 272 276 281 296 301 296 314 316 327 319 328 341 317 333 323 340 343 337 345 347 352 349 350 348 348 346 338 338 339 336 334 340 338 330 332 336 325 324 323 322 322 321 325 314 307 308 312 309
260 275 274 284 290 294 308 317 313 313 325 332 332 320 328 305 309 335 335 333 336 341 340 343 345 350 342 343 340 338 336 336 340 338 338 331 332 328 323 322 323 323 318 324 318 311 305 318 336
260 271 275 282 282 295 300 304 305 318 318 321 332 317 316 293 299 328 328 329 338 337 340 341 343 345 337 337 341 335 330 334 337 339 334 335 333 329 325 325 323 316 314 316 309 305 295 329 335
258 264 272 281 292 291 295 295 297 305 309 316 316 312 306 300 304 325 328 326 329 335 340 339 340 341 335 335 340 335 326 329 340 341 339 335 333 328 330 325 329 329 314 313 299 290 283 305 317
255 265 274 286 286 290 293 299 302 304 303 307 321 304 302 309 306 316 320 321 330 333 336 337 340 338 334 337 338 334 326 332 341 338 335 335 332 334 334 329 330 335 323 310 300 279 285 280 292
255 262 273 279 277 282 287 292 296 300 304 306 314 309 302 298 303 307 311 320 326 328 330 334 341 334 332 327 332 323 324 335 335 334 335 336 333 334 332 328 327 330 325 313 296 274 281 276 266
257 261 271 273 275 276 283 288 292 297 302 306 315 308 303 293 297 302 310 319 323 323 327 329 334 331 329 325 327 315 325 331 335 335 335 336 336 336 333 328 329 327 325 309 293 271 270 270 265
256 260 268 269 273 279 280 285 292 294 299 302 307 301 300 300 296 297 307 318 321 320 326 328 332 331 328 330 323 321 326 330 332 336 337 337 336 337 333 332 335 333 318 312 290 278 268 291 282
254 258 264 268 270 274 279 286 288 290 298 300 304 302 297 299 294 295 313 318 319 324 327 327 334 329 325 325 323 320 328 327 333 336 336 338 337 336 335 332 330 331 326 315 291 274 262 270 255
253 259 263 266 270 276 278 285 292 292 298 299 302 300 296 295 286 284 295 308 311 316 322 326 333 325 321 321 319 318 328 327 331 335 336 337 335 334 333 331 329 331 327 318 290 264 255 250 221
255 259 261 268 271 272 280 284 287 294 295 296 302 299 300 293 284 287 294 305 311 315 321 325 330 322 318 318 316 322 328 325 329 333 335 335 334 333 334 332 330 329 325 316 290 265 248 247 240
257 260 264 266 269 275 284 286 285 289 292 296 299 297 294 292 287 292 299 310 309 314 320 323 326 320 316 318 314 322 324 322 329 329 334 333 334 334 333 330 337 335 326 317 303 272 240 237 242
256 259 263 265 269 276 289 284 285 287 288 293 293 289 289 291 292 297 302 312 314 315 321 322 322 318 316 317 314 319 321 321 325 328 332 331 329 331 331 334 340 343 332 318 310 290 262 243 236
263 266 263 266 275 284 285 282 282 285 290 291 288 288 293 294 294 297 302 312 314 313 318 317 318 316 315 311 310 313 313 316 321 329 329 330 329 329 331 336 341 346 339 319 312 307 278 259 252
249 250 258 264 264 269 277 282 286 284 287 285 281 287 288 293 293 295 300 309 310 313 314 313 315 314 311 308 306 308 307 314 323 327 329 328 328 327 329 335 340 344 350 337 314 305 300 273 262
249 250 253 262 267 266 270 277 283 283 282 284 284 285 292 289 290 291 298 302 307 313 309 310 312 312 311 307 306 306 311 317 324 327 327 328 327 328 331 333 339 340 345 343 339 312 297 286 267
256 259 262 267 270 271 271 278 276 277 277 277 279 287 285 288 294 289 295 302 308 309 306 308 310 310 310 306 300 306 312 321 326 326 327 327 328 328 328 332 337 340 343 343 343 323 306 293 280
262 265 267 267 268 268 270 272 271 271 275 278 285 286 293 296 290 288 296 303 306 304 306 307 307 309 308 300 303 308 316 322 323 324 325 326 326 326 328 334 337 340 339 342 341 339 309 303 298
265 259 259 267 268 270 271 268 269 270 271 276 279 286 291 287 284 289 298 302 303 301 305 307 308 309 304 301 303 308 319 321 321 323 324 323 324 325 328 332 333 335 335 338 339 338 331 320 316
254 255 261 266 268 275 279 269 263 272 275 275 279 285 288 287 292 296 299 301 298 300 303 303 307 308 306 303 303 312 318 319 321 323 322 324 324 325 326 329 328 333 334 334 335 336 335 326 320
256 256 261 271 272 274 276 274 269 269 272 279 279 280 283 287 291 294 297 297 297 298 298 303 306 307 304 300 308 316 317 318 321 321 322 323 325 325 324 326 329 329 332 332 333 333 330 327 321
251 252 264 269 269 267 271 276 284 277 276 278 279 281 285 287 289 292 294 294 293 295 302 304 305 302 298 306 313 316 317 319 318 319 320 322 323 324 324 328 329 328 329 330 330 331 329 324 321
250 252 259 264 260 265 272 283 283 274 275 278 281 283 282 285 288 290 290 291 295 300 302 302 298 294 304 311 312 314 315 316 317 316 318 322 323 326 328 326 327 327 328 329 330 329 327 325 321
252 252 258 255 257 263 274 281 274 271 271 280 283 279 278 285 292 290 292 295 297 298 299 294 292 303 310 309 310 312 313 314 315 315 318 320 324 325 328 325 326 326 328 327 328 328 327 324 321
251 253 255 259 264 270 271 276 275 273 273 278 279 276 281 288 290 290 293 295 296 294 291 291 303 309 309 307 308 310 311 314 314 316 321 325 326 327 325 324 324 325 325 325 325 327 326 323 320
254 258 255 260 263 270 274 275 271 274 276 275 273 278 283 285 289 292 291 290 292 288 291 300 305 307 306 306 306 308 311 312 314 318 320 328 325 324 321 322 322 323 323 324 325 326 325 323 321
246 251 258 263 270 272 273 274 272 272 272 269 270 274 278 286 285 288 291 290 286 289 297 302 303 304 305 305 307 309 312 316 318 320 320 327 324 320 322 321 322 323 324 325 325 325 324 323 320
Height
10929 10930 10932 10933 10934 10934 10933 10934 10934 10933 10929 10928 10927 10929 10926 10921 10919 10917 10915 10914 10912 10910 10907 10904 10901 10897 10893 10889 10885 10881 10877 10872 10867 10862 10857 10852 10847 10843 10838 10834 10830 10825 10821 10816 10810 10806 10802 10798 10794
10926 10927 10929 10930 10931 10932 10932 10932 10933 10934 10926 10922 10923 10924 10923 10918 10916 10914 10912 10909 10907 10906 10904 10901 10897 10894 10889 10886 10882 10878 10873 10868 10863 10859 10854 10849 10844 10839 10834 10829 10824 10818 10813 10807 10801 10798 10795 10792 10788
10923 10924 10925 10926 10928 10929 10930 10930 10930 10930 10927 10921 10919 10919 10920 10915 10912 10913 10911 10908 10906 10903 10901 10898 10895 10891 10886 10882 10878 10874 10869 10864 10860 10856 10850 10845 10839 10834 10830 10823 10818 10812 10806 10800 10794 10789 10786 10784 10782
10919 10920 10920 10923 10926 10925 10925 10929 10927 10927 10922 10922 10920 10918 10918 10913 10909 10909 10908 10906 10903 10900 10898 10895 10892 10887 10882 10878 10874 10870 10865 10861 10857 10851 10845 10840 10835 10829 10823 10816 10811 10805 10799 10792 10786 10782 10780 10778 10776
10916 10916 10916 10920 10924 10921 10921 10922 10921 10924 10922 10919 10917 10915 10917 10913 10907 10906 10904 10903 10900 10897 10895 10892 10887 10881 10877 10873 10869 10864 10861 10857 10852 10847 10841 10837 10830 10823 10816 10810 10805 10799 10793 10787 10781 10776 10774 10774 10773
10913 10913 10912 10914 10921 10919 10917 10919 10916 10920 10919 10915 10914 10914 10915 10910 10906 10902 10899 10899 10898 10894 10890 10886 10881 10877 10872 10868 10865 10861 10857 10853 10848 10843 10837 10831 10823 10816 10809 10803 10797 10792 10786 10781 10775 10771 10769 10766 10765
10909 10909 10908 10909 10918 10915 10912 10913 10915 10917 10918 10915 10910 10906 10910 10910 10906 10899 10894 10892 10892 10890 10886 10882 10877 10873 10868 10864 10861 10856 10852 10849 10843 10837 10831 10824 10817 10810 10803 10797 10792 10787 10780 10774 10769 10765 10762 10757 10755
10904 10904 10904 10909 10912 10911 10908 10906 10908 10909 10913 10914 10911 10905 10902 10904 10902 10898 10893 10888 10885 10883 10881 10878 10874 10869 10863 10859 10856 10851 10847 10843 10838 10831 10825 10818 10811 10803 10797 10790 10785 10781 10775 10768 10762 10758 10755 10751 10748
10899 10899 10899 10905 10906 10905 10904 10904 10902 10903 10904 10907 10906 10902 10900 10900 10899 10895 10891 10886 10881 10877 10874 10872 10870 10864 10859 10855 10851 10846 10842 10838 10833 10826 10819 10812 10805 10797 10789 10784 10778 10774 10767 10761 10756 10751 10748 10744 10745
10894 10893 10894 10900 10900 10900 10898 10898 10899 10899 10898 10898 10898 10897 10897 10896 10894 10892 10887 10881 10877 10873 10870 10870 10867 10860 10854 10849 10846 10841 10838 10831 10826 10820 10813 10806 10798 10790 10783 10776 10770 10765 10757 10751 10747 10744 10740 10739 10735
10888 10887 10889 10894 10893 10893 10894 10893 10893 10892 10893 10893 10892 10890 10889 10888 10887 10884 10885 10877 10871 10863 10859 10860 10862 10854 10847 10844 10839 10834 10829 10823 10819 10813 10806 10799 10791 10783 10775 10768 10761 10754 10749 10743 10738 10738 10734 10731 10731
10880 10882 10882 10884 10887 10886 10885 10889 10889 10885 10886 10886 10885 10883 10884 10883 10881 10877 10879 10874 10864 10854 10849 10848 10851 10848 10841 10836 10832 10827 10822 10816 10811 10806 10799 10792 10784 10775 10767 10762 10756 10748 10737 10729 10724 10726 10726 10725 10723
10873 10874 10876 10874 10878 10880 10879 10880 10880 10878 10879 10878 10876 10876 10878 10876 10876 10873 10879 10876 10867 10859 10849 10844 10844 10839 10834 10830 10824 10820 10815 10809 10805 10799 10791 10785 10777 10770 10762 10755 10748 10739 10727 10716 10711 10713 10715 10715 10714
10865 10865 10868 10866 10870 10869 10871 10875 10874 10868 10871 10871 10867 10865 10868 10866 10863 10860 10868 10867 10862 10852 10845 10842 10841 10833 10825 10820 10816 10812 10807 10801 10796 10791 10785 10777 10768 10760 10753 10746 10739 10732 10720 10708 10701 10701 10702 10705 10704
10855 10856 10859 10859 10858 10860 10864 10865 10866 10863 10862 10862 10861 10859 10859 10857 10851 10848 10854 10861 10853 10845 10839 10836 10835 10829 10819 10814 10808 10803 10799 10793 10787 10781 10775 10768 10761 10754 10747 10739 10730 10720 10709 10700 10693 10689 10689 10692 10691
10845 10846 10850 10843 10847 10852 10858 10854 10858 10853 10855 10854 10852 10853 10851 10850 10843 10836 10835 10845 10842 10835 10829 10824 10824 10821 10813 10808 10802 10797 10790 10784 10779 10773 10767 10762 10756 10749 10741 10730 10718 10708 10700 10691 10684 10680 10678 10679 10685
10837 10839 10836 10832 10841 10845 10849 10844 10844 10843 10847 10846 10844 10848 10846 10839 10835 10829 10825 10832 10831 10824 10819 10815 10813 10811 10806 10803 10797 10793 10787 10780 10774 10768 10762 10756 10749 10741 10732 10723 10711 10700 10693 10686 10679 10670 10667 10668 10671
10818 10822 10824 10824 10830 10837 10838 10836 10838 10835 10834 10831 10832 10839 10840 10832 10826 10822 10819 10821 10823 10818 10810 10806 10803 10800 10796 10792 10788 10784 10777 10771 10765 10758 10751 10745 10738 10731 10723 10715 10707 10697 10690 10683 10676 10669 10664 10660 10655
10810 10815 10815 10814 10817 10827 10827 10829 10828 10829 10823 10819 10822 10825 10829 10822 10819 10813 10814 10813 10810 10810 10806 10799 10794 10789 10785 10780 10776 10770 10765 10758 10752 10746 10739 10732 10726 10720 10714 10709 10700 10690 10683 10676 10667 10660 10656 10652 10646
10799 10804 10806 10799 10803 10812 10816 10821 10819 10815 10812 10809 10811 10817 10817 10814 10812 10807 10809 10805 10799 10797 10795 10790 10784 10780 10774 10769 10763 10758 10752 10745 10739 10733 10727 10720 10715 10708 10702 10696 10687 10680 10673 10666 10659 10652 10647 10642 10638
10789 10794 10788 10788 10783 10800 10804 10813 10810 10808 10806 10795 10797 10800 10805 10799 10795 10794 10797 10794 10789 10785 10781 10778 10774 10770 10765 10759 10752 10746 10740 10734 10728 10722 10716 10709 10703 10696 10689 10681 10671 10662 10656 10652 10648 10642 10632 10627 10623
10776 10771 10769 10775 10772 10784 10793 10805 10802 10796 10794 10793 10791 10793 10795 10786 10780 10784 10784 10780 10777 10774 10770 10766 10762 10759 10755 10748 10741 10735 10729 10722 10716 10709 10702 10697 10691 10683 10675 10667 10658 10648 10639 10632 10626 10621 10616 10611 10602
10768 10753 10759 10762 10764 10771 10776 10779 10795 10782 10781 10779 10783 10785 10779 10773 10770 10773 10771 10767 10766 10763 10760 10757 10752 10748 10742 10736 10729 10722 10716 10711 10703 10696 10689 10684 10677 10668 10660 10652 10643 10635 10627 10618 10609 10601 10595 10585 10576
10745 10747 10747 10751 10750 10765 10763 10749 10786 10778 10767 10770 10771 10771 10767 10763 10761 10762 10760 10756 10754 10751 10748 10745 10740 10736 10730 10723 10715 10709 10704 10698 10690 10683 10676 10670 10662 10653 10645 10637 10628 10617 10609 10599 10588 10577 10568 10561 10553
10728 10733 10732 10734 10735 10752 10744 10740 10773 10763 10757 10756 10757 10759 10755 10752 10752 10752 10750 10747 10744 10740 10736 10731 10727 10723 10717 10710 10701 10697 10691 10685 10678 10670 10662 10655 10646 10637 10629 10619 10609 10601 10591 10579 10567 10556 10542 10531 10521
10708 10709 10716 10716 10720 10735 10732 10749 10758 10749 10747 10744 10745 10748 10744 10741 10740 10740 10740 10736 10732 10728 10723 10719 10714 10710 10703 10695 10689 10684 10678 10672 10665 10657 10649 10641 10631 10620 10608 10596 10590 10578 10568 10558 10545 10532 10519 10507 10494
10697 10692 10706 10695 10704 10717 10727 10736 10737 10736 10734 10730 10732 10732 10729 10728 10726 10725 10727 10723 10720 10716 10711 10707 10702 10696 10689 10681 10677 10673 10666 10659 10651 10643 10634 10626 10613 10601 10588 10580 10571 10558 10546 10533 10521 10510 10497 10482 10470
10673 10682 10682 10690 10698 10702 10716 10718 10723 10721 10721 10720 10720 10718 10714 10713 10711 10710 10711 10709 10706 10703 10698 10693 10687 10682 10675 10666 10662 10660 10656 10646 10636 10628 10620 10609 10593 10581 10573 10565 10553 10543 10532 10520 10507 10495 10481 10464 10448
10663 10666 10672 10675 10679 10688 10698 10708 10709 10707 10706 10704 10703 10705 10703 10702 10700 10694 10695 10696 10694 10689 10684 10678 10674 10668 10660 10652 10647 10643 10641 10635 10623 10612 10603 10589 10578 10571 10565 10554 10545 10533 10520 10506 10489 10472 10458 10444 10430
10639 10651 10656 10659 10673 10673 10672 10699 10694 10691 10690 10687 10690 10691 10692 10693 10691 10686 10682 10681 10679 10674 10669 10664 10660 10653 10645 10637 10630 10625 10620 10612 10601 10590 10583 10568 10563 10559 10549 10538 10523 10510 10495 10480 10468 10451 10436 10420 10408